Stations météo

Publicité
Putbus, Allemagne (10093): Température de l'air & dewpoint: 12.01.2018 06:00:00 - 18.01.2018 06:00:00 (CET)Putbus, Allemagne (10093): Température de l'air 5cm & Température de l'air -5cm: 12.01.2018 06:00:00 - 18.01.2018 06:00:00 (CET)Putbus, Allemagne (10093): Température de l'air -20cm & Température de l'air -100cm: 12.01.2018 06:00:00 - 18.01.2018 06:00:00 (CET)Putbus, Allemagne (10093): Vitesse du vent & gusts: 12.01.2018 06:00:00 - 18.01.2018 06:00:00 (CET)Putbus, Allemagne (10093): Direction du vent: 12.01.2018 06:00:00 - 18.01.2018 06:00:00 (CET)Putbus, Allemagne (10093): reduced air pressure: 12.01.2018 06:00:00 - 18.01.2018 06:00:00 (CET)Putbus, Allemagne (10093): visibility: 12.01.2018 06:00:00 - 18.01.2018 06:00:00 (CET)Putbus, Allemagne (10093): Ensoleillement: 12.01.2018 06:00:00 - 18.01.2018 06:00:00 (CET)Putbus, Allemagne (10093): Quantités de précipitations: 12.01.2018 06:00:00 - 18.01.2018 06:00:00 (CET)
Date & Time tt [°C] td [°C] tt 5cm [°C] tt -5cm [°C] tt -20cm [°C] tt -100cm [°C] ff [km/h] ff [knt] fx [km/h] fx [knt] dd ppp [hPa] vv [km] sd [min] rr [mm]
18.01.2018 06:00:00 1,5 -0,1 0,8 0,1 0,9 4,8 17 9 32 17 SW 996,5 35 0 0,0
18.01.2018 05:00:00 1,5 0,2 0,7 0,1 0,9 4,8 18 10 31 17 WSW 997,2 24 0 0,0
18.01.2018 04:00:00 1,0 0,2 0,5 0,1 0,9 4,8 16 9 38 20 SW 997,3 20 0 0,0
18.01.2018 03:00:00 0,9 0,1 0,5 0,1 0,9 4,9 22 12 34 18 SW 997,5 17 0 0,1
18.01.2018 02:00:00 1,0 -0,1 0,4 0,1 0,9 4,9 23 12 34 18 WSW 997,2 27 0 0,0
18.01.2018 01:00:00 0,8 -0,3 0,0 0,1 0,9 4,9 21 11 34 18 WSW 997,3 24 0 0,0
18.01.2018 00:00:00 0,8 -0,3 -0,1 0,1 0,9 4,9 24 13 35 19 WSW 997,0 18 0 0,0
17.01.2018 23:00:00 0,8 0,0 0,0 0,1 0,9 4,9 17 9 27 15 WSW 996,8 17 0 0,0
17.01.2018 22:00:00 0,5 0,0 0,0 0,1 0,9 4,9 15 8 31 17 WSW 996,3 22 0 0,0
17.01.2018 21:00:00 0,3 0,0 -0,1 0,1 0,9 4,9 14 7 37 20 WSW 995,8 25 0 1,4
17.01.2018 20:00:00 0,4 -0,2 0,0 0,1 0,9 4,9 22 12 35 19 W 995,0 1,6 0 0,7
17.01.2018 19:00:00 0,8 0,1 0,1 0,0 0,9 4,9 18 10 28 15 WSW 994,3 4,4 0 0,5
17.01.2018 18:00:00 0,5 -0,1 0,0 0,0 0,9 4,9 17 9 32 17 WSW 993,8 4,0 0 0,4
17.01.2018 17:00:00 1,0 0,2 0,1 0,0 0,9 4,9 16 9 29 15 WSW 992,9 11 0 0,0
17.01.2018 16:00:00 1,3 0,3 0,9 0,0 0,9 4,9 16 9 27 15 WSW 992,2 10 0 0,0
17.01.2018 15:00:00 1,7 0,2 1,4 0,0 0,9 4,9 19 10 29 16 WSW 991,7 13 0 0,0
17.01.2018 14:00:00 1,9 0,2 1,7 0,0 0,9 4,9 16 9 32 18 WSW 990,8 13 0 0,0
17.01.2018 13:00:00 1,6 0,2 1,4 0,0 0,9 4,9 16 9 26 14 WSW 990,4 11 0 0,0
17.01.2018 12:00:00 1,7 0,1 1,7 0,0 0,9 4,9 16 8 26 14 SW 990,2 10 0 0,0
17.01.2018 11:00:00 1,6 -0,2 1,4 0,0 0,9 4,9 14 7 28 15 SW 989,8 16 23 0,0
17.01.2018 10:00:00 1,4 -0,9 0,8 0,0 0,9 4,9 18 10 29 16 SW 989,1 24 3 0,0
17.01.2018 09:00:00 0,9 -0,7 0,3 0,0 0,9 4,9 15 8 24 13 WSW 988,6 19 0 0,0
17.01.2018 08:00:00 0,9 -0,4 -0,1 0,0 0,9 4,9 14 8 23 13 SW 988,0 16 0 0,0
17.01.2018 07:00:00 1,1 -0,3 0,7 0,0 0,9 4,9 15 8 26 14 SSW 987,8 17 0 0,0
17.01.2018 06:00:00 1,3 -0,6 0,8 0,0 0,9 4,9 14 8 25 14 SW 987,5 21 0 0,0
17.01.2018 05:00:00 1,3 -0,7 1,0 0,0 0,9 4,9 15 8 26 14 SW 987,5 33 0 0,0
17.01.2018 04:00:00 1,3 -0,5 1,0 0,0 0,9 4,9 17 9 33 18 SW 987,5 28 0 0,0
17.01.2018 03:00:00 1,1 -0,5 0,3 0,0 0,9 4,9 18 10 32 17 WSW 987,4 27 0 0,0
17.01.2018 02:00:00 1,5 -0,3 1,2 0,0 0,9 4,9 13 7 29 16 WSW 987,4 31 0 0,0
17.01.2018 01:00:00 1,4 -0,3 1,1 0,0 0,9 5,0 21 11 34 18 W 987,3 35 0 0,0
17.01.2018 00:00:00 1,5 -0,3 1,1 0,0 0,9 5,0 22 12 35 19 WSW 987,2 35 0 0,0
16.01.2018 23:00:00 1,6 -0,1 1,2 0,0 0,9 5,0 21 12 34 18 WSW 986,9 41 0 0,0
16.01.2018 22:00:00 1,8 0,4 1,2 0,0 0,9 5,0 19 10 29 15 WSW 986,9 30 0 0,1
16.01.2018 21:00:00 2,0 0,8 1,4 0,0 0,9 5,0 15 8 26 14 WSW 986,5 19 0 0,0
16.01.2018 20:00:00 2,2 0,9 1,6 0,0 0,9 5,0 11 6 21 11 SW 986,6 24 0 0,0
16.01.2018 19:00:00 2,1 1,2 1,5 0,0 0,9 5,0 10 5 18 10 SSW 986,4 23 0 0,0
16.01.2018 18:00:00 2,3 1,4 1,7 0,0 0,9 5,0 11 6 20 11 SW 986,3 27 0 0,0
16.01.2018 17:00:00 2,4 1,7 1,7 0,0 0,9 5,0 11 6 19 10 SSW 986,5 25 0 0,0
16.01.2018 16:00:00 2,3 1,8 1,7 0,0 0,9 5,0 10 5 19 10 SSW 986,2 15 0 0,0
16.01.2018 15:00:00 2,2 1,7 1,8 0,0 0,9 5,0 12 7 22 12 SSW 986,3 11 0 0,0
16.01.2018 14:00:00 2,4 1,8 2,1 0,0 0,9 5,0 13 7 24 13 S 986,4 12 0 0,1
16.01.2018 13:00:00 2,3 1,7 2,1 0,0 0,9 5,0 13 7 28 15 S 987,0 12 0 0,0
16.01.2018 12:00:00 2,1 1,6 1,9 0,0 0,9 5,0 16 9 27 14 SSW 987,4 8 0 0,0
16.01.2018 11:00:00 1,9 1,3 1,8 0,0 0,9 5,0 17 9 29 16 S 987,9 10 0 0,0
16.01.2018 10:00:00 1,5 1,0 1,2 0,0 0,9 5,0 16 9 27 15 S 987,9 11 0 0,0
16.01.2018 09:00:00 1,0 0,6 0,2 0,0 0,9 5,0 18 10 33 18 S 988,0 13 0 0,0
16.01.2018 08:00:00 0,8 0,4 0,1 0,0 0,9 5,0 19 10 31 17 S 987,7 15 0 0,0
16.01.2018 07:00:00 0,5 0,3 0,0 0,0 0,9 5,0 19 11 41 22 S 988,3 19 0 0,4
16.01.2018 06:00:00 0,1 0,1 -0,1 0,0 0,9 5,0 19 10 43 23 S 988,8 1,4 0 1,0
16.01.2018 05:00:00 -0,2 -0,3 -0,1 0,0 0,9 5,0 21 12 46 25 S 989,5 0,7 0 1,4
16.01.2018 04:00:00 0,2 -1,0 0,0 0,0 0,9 5,0 26 14 51 28 S 990,4 8 0 0,2
16.01.2018 03:00:00 0,2 -1,6 0,1 -0,1 0,9 5,0 24 13 58 31 S 991,8 7 0 0,0
16.01.2018 02:00:00 0,5 -2,6 0,3 -0,1 0,9 5,1 31 17 53 29 S 993,2 7 0 0,0
16.01.2018 01:00:00 0,8 -3,0 0,6 -0,1 0,9 5,1 24 13 53 29 SSE 994,7 16 0 0,0
16.01.2018 00:00:00 0,7 -2,8 0,5 -0,1 0,9 5,1 26 14 54 29 S 996,7 15 0 0,0
15.01.2018 23:00:00 0,5 -3,0 0,2 -0,1 0,9 5,1 26 14 49 27 S 998,3 15 0 0,0
15.01.2018 22:00:00 0,5 -2,9 -0,2 -0,1 0,9 5,1 21 12 48 26 SSE 1000,0 16 0 0,0
15.01.2018 21:00:00 0,7 -2,9 0,3 -0,1 0,9 5,1 22 12 50 27 SSE 1001,7 16 0 0,0
15.01.2018 20:00:00 0,7 -3,0 0,4 -0,1 0,9 5,1 23 13 52 28 SSE 1003,3 17 0 0,0
15.01.2018 19:00:00 0,5 -3,0 -0,1 -0,1 0,9 5,1 23 12 44 24 SSE 1004,9 16 0 0,0
15.01.2018 18:00:00 0,6 -2,9 -0,3 -0,1 0,9 5,1 22 12 49 26 SSE 1006,4 14 0 0,0
15.01.2018 17:00:00 0,8 -3,0 0,5 -0,1 0,9 5,1 24 13 48 26 SSE 1007,9 15 0 0,0
15.01.2018 16:00:00 0,6 -3,2 0,4 -0,1 0,9 5,1 23 12 42 23 SSE 1009,1 14 0 0,0
15.01.2018 15:00:00 0,2 -3,3 -0,4 -0,1 0,9 5,1 21 11 48 26 SSE 1010,3 12 39 0,0
15.01.2018 14:00:00 0,1 -3,9 -0,1 -0,1 0,9 5,1 25 14 48 26 SSE 1011,8 11 60 0,0
15.01.2018 13:00:00 -0,2 -4,0 -0,3 -0,1 0,9 5,1 22 12 46 25 S 1013,6 9 60 0,0
15.01.2018 12:00:00 -1,1 -4,7 -1,4 -0,2 0,9 5,1 22 12 43 23 SSE 1015,3 9 57 0,0
15.01.2018 11:00:00 -1,6 -4,5 -1,6 -0,2 1,0 5,1 23 12 48 26 SSE 1017,1 7 22 0,0
15.01.2018 10:00:00 -2,2 -4,7 -2,0 -0,3 1,0 5,1 22 12 41 22 SSE 1018,3 8 0 0,0
15.01.2018 09:00:00 -2,6 -5,0 -2,4 -0,3 1,0 5,1 22 12 38 21 SSE 1019,5 8 0 0,0
15.01.2018 08:00:00 -2,8 -5,2 -2,7 -0,3 1,0 5,1 18 10 37 20 SSE 1020,5 8 0 0,0
15.01.2018 07:00:00 -2,7 -5,2 -2,6 -0,3 1,0 5,1 17 9 39 21 SSE 1021,4 9 0 0,0
15.01.2018 06:00:00 -2,6 -5,2 -2,7 -0,4 1,0 5,1 21 11 39 21 SSE 1022,1 10 0 0,0
15.01.2018 05:00:00 -2,7 -5,3 -3,6 -0,4 1,0 5,1 21 11 44 24 SSE 1023,0 10 0 0,0
15.01.2018 04:00:00 -2,7 -5,4 -3,4 -0,3 1,1 5,1 22 12 36 19 SSE 1024,1 9 0 0,0
15.01.2018 03:00:00 -2,8 -5,3 -3,5 -0,1 1,1 5,1 18 10 38 20 SSE 1025,0 9 0 0,0
15.01.2018 02:00:00 -2,7 -5,4 -3,5 0,0 1,1 5,1 19 11 37 20 S 1025,8 9 0 0,0
15.01.2018 01:00:00 -2,5 -5,3 -3,5 0,1 1,1 5,1 16 9 35 19 SSE 1026,7 10 0 0,0
15.01.2018 00:00:00 -2,3 -5,6 -3,0 0,1 1,1 5,2 16 9 34 18 SSE 1027,1 11 0 0,0
14.01.2018 23:00:00 -2,1 -5,7 -2,3 0,1 1,1 5,2 18 10 32 17 SSE 1027,8 13 0 0,0
14.01.2018 22:00:00 -2,4 -6,0 -2,3 0,1 1,1 5,2 17 9 34 19 SSE 1028,2 12 0 0,0
14.01.2018 21:00:00 -2,5 -6,2 -2,7 0,1 1,1 5,2 16 9 32 17 SSE 1028,1 15 0 0,0
14.01.2018 20:00:00 -2,5 -6,3 -2,7 0,1 1,1 5,2 16 9 34 18 SSE 1028,8 15 0 0,0
14.01.2018 19:00:00 -2,7 -6,8 -2,8 0,1 1,1 5,2 16 9 31 17 SSE 1029,3 16 0 0,0
14.01.2018 18:00:00 -2,6 -6,8 -2,7 0,1 1,1 5,2 15 8 29 16 SE 1029,6 16 0 0,0
14.01.2018 17:00:00 -2,7 -6,9 -2,6 0,1 1,1 5,2 14 8 30 16 SSE 1029,9 14 0 0,0
14.01.2018 16:00:00 -2,8 -7,0 -2,6 0,2 1,2 5,2 12 6 27 14 SE 1030,3 8 0 0,0
14.01.2018 15:00:00 -2,8 -7,3 -2,6 0,2 1,2 5,2 16 9 32 17 SE 1030,7 8 0 0,0
14.01.2018 14:00:00 -2,2 -6,6 -2,0 0,2 1,2 5,2 13 7 26 14 SE 1030,8 17 0 0,0
14.01.2018 13:00:00 -2,0 -6,3 -1,7 0,2 1,2 5,2 13 7 29 16 SE 1031,3 13 0 0,0
14.01.2018 12:00:00 -1,5 -6,1 -1,3 0,2 1,2 5,2 14 8 29 15 SE 1031,7 19 46 0,0
14.01.2018 11:00:00 -1,5 -6,1 -1,0 0,2 1,2 5,2 14 8 29 15 SSE 1032,4 18 1 0,0
14.01.2018 10:00:00 -1,5 -6,1 -1,6 0,2 1,2 5,2 16 9 29 16 SSE 1032,4 16 0 0,0
14.01.2018 09:00:00 -1,3 -5,8 -1,4 0,2 1,2 5,2 12 7 30 16 SE 1032,1 19 0 0,0
14.01.2018 08:00:00 -1,0 -5,3 -1,2 0,2 1,2 5,2 14 7 28 15 SE 1031,9 19 0 0,0
14.01.2018 07:00:00 -0,9 -5,4 -1,1 0,2 1,2 5,2 13 7 25 13 SE 1032,2 19 0 0,0
14.01.2018 06:00:00 -0,9 -5,4 -1,0 0,2 1,2 5,2 12 7 31 17 SSE 1032,2 19 0 0,0
14.01.2018 05:00:00 -0,7 -5,7 -0,9 0,2 1,3 5,2 15 8 31 17 SSE 1032,5 21 0 0,0
14.01.2018 04:00:00 -0,6 -5,6 -0,8 0,2 1,3 5,2 16 8 31 17 SSE 1032,5 20 0 0,0
14.01.2018 03:00:00 -0,6 -5,6 -0,8 0,2 1,3 5,2 14 7 29 16 SE 1032,9 20 0 0,0
14.01.2018 02:00:00 -0,6 -5,7 -0,8 0,2 1,3 5,2 15 8 28 15 SE 1033,1 21 0 0,0
14.01.2018 01:00:00 -0,6 -6,0 -0,8 0,2 1,3 5,2 16 9 35 19 SE 1033,2 23 0 0,0
14.01.2018 00:00:00 -0,6 -5,8 -0,8 0,2 1,4 5,2 16 9 31 17 SSE 1033,6 22 0 0,0
13.01.2018 23:00:00 -0,6 -5,5 -0,8 0,3 1,4 5,2 16 9 37 20 SSE 1033,8 23 0 0,0
13.01.2018 22:00:00 -0,7 -5,4 -0,8 0,3 1,4 5,2 17 9 37 20 SSE 1033,9 23 0 0,0
13.01.2018 21:00:00 -0,2 -5,1 -0,5 0,3 1,4 5,2 18 10 37 20 SE 1034,1 32 0 0,0
13.01.2018 20:00:00 0,0 -5,5 -0,2 0,3 1,5 5,2 17 9 38 20 SE 1034,1 36 0 0,0
13.01.2018 19:00:00 -0,2 -5,5 -0,4 0,3 1,5 5,2 16 9 36 19 SE 1034,4 36 0 0,0
13.01.2018 18:00:00 -0,7 -6,2 -0,9 0,4 1,6 5,2 18 10 34 18 SE 1034,4 19 0 0,0
13.01.2018 17:00:00 -1,1 -5,7 -1,2 0,4 1,7 5,2 11 6 35 19 SE 1034,5 30 0 0,0
13.01.2018 16:00:00 -1,0 -5,8 -1,1 0,4 1,7 5,2 17 9 34 19 SE 1034,4 35 0 0,0
13.01.2018 15:00:00 -0,7 -5,2 -0,7 1,0 1,7 5,2 16 8 31 17 SE 1034,4 30 0 0,0
13.01.2018 14:00:00 -0,4 -4,7 -0,1 1,5 1,6 5,2 17 9 37 20 SE 1034,6 27 9 0,0
13.01.2018 13:00:00 -0,2 -3,9 -0,1 1,8 1,5 5,2 17 9 32 17 SE 1034,9 26 42 0,0
13.01.2018 12:00:00 0,3 -3,4 0,5 0,9 1,4 5,2 18 10 39 21 SSE 1035,0 18 32 0,0
13.01.2018 11:00:00 -0,2 -3,0 0,0 0,5 1,4 5,2 15 8 32 17 SE 1035,2 13 0 0,0
13.01.2018 10:00:00 -0,1 -2,7 -0,2 0,3 1,5 5,2 12 6 29 16 SE 1034,9 12 0 0,0
13.01.2018 09:00:00 -0,3 -2,7 -0,4 0,3 1,5 5,2 13 7 27 15 SE 1034,6 10 0 0,0
13.01.2018 08:00:00 -0,2 -2,3 -0,4 0,3 1,5 5,2 13 7 26 14 SE 1034,4 8 0 0,0
13.01.2018 07:00:00 -0,1 -2,0 -0,2 0,4 1,6 5,2 11 6 25 13 SE 1034,3 7 0 0,0
13.01.2018 06:00:00 -0,1 -2,2 -0,2 0,4 1,6 5,2 12 6 27 15 SE 1034,2 7 0 0,0
13.01.2018 05:00:00 0,0 -2,1 -0,1 0,5 1,7 5,2 11 6 27 15 SE 1034,3 8 0 0,0
13.01.2018 04:00:00 0,1 -1,9 0,0 0,6 1,7 5,2 13 7 27 15 ESE 1034,4 7 0 0,0
13.01.2018 03:00:00 0,2 -1,6 0,1 0,7 1,8 5,2 14 8 26 14 ESE 1034,3 7 0 0,0
13.01.2018 02:00:00 0,4 -1,5 0,3 0,8 1,8 5,2 13 7 25 13 ESE 1034,1 8 0 0,0
13.01.2018 01:00:00 0,6 -1,0 0,5 0,9 1,8 5,2 14 8 23 13 ESE 1033,9 8 0 0,0
13.01.2018 00:00:00 0,7 -0,9 0,6 1,0 1,9 5,2 15 8 29 15 ESE 1034,0 9 0 0,0
12.01.2018 23:00:00 0,8 -1,1 0,7 1,0 1,9 5,2 18 10 29 16 ESE 1033,7 11 0 0,0
12.01.2018 22:00:00 0,9 -1,0 0,8 1,2 1,9 5,3 17 9 29 16 ESE 1033,7 12 0 0,0
12.01.2018 21:00:00 1,0 -0,9 0,9 1,3 2,0 5,3 15 8 29 15 E 1033,6 13 0 0,0
12.01.2018 20:00:00 1,5 -0,6 1,3 1,4 2,0 5,3 14 8 32 17 ESE 1033,1 14 0 0,0
12.01.2018 19:00:00 1,8 -0,3 1,6 1,6 1,9 5,3 17 9 28 15 ESE 1032,6 16 0 0,0
12.01.2018 18:00:00 2,0 -0,1 1,8 1,7 1,9 5,3 17 9 30 16 ESE 1032,5 16 0 0,0
12.01.2018 17:00:00 2,0 0,4 1,8 1,8 1,9 5,3 15 8 26 14 ESE 1032,2 14 0 0,0
12.01.2018 16:00:00 2,2 0,5 2,0 2,0 1,8 5,3 13 7 25 13 E 1032,0 18 0 0,0
12.01.2018 15:00:00 2,2 0,4 2,1 2,1 1,6 5,3 13 7 24 13 E 1031,8 16 0 0,0
12.01.2018 14:00:00 2,3 0,5 2,3 2,1 1,4 5,3 14 7 30 16 ESE 1031,4 18 0 0,0
12.01.2018 13:00:00 2,5 0,5 2,7 1,7 1,2 5,3 16 9 29 16 E 1031,0 20 0 0,0
12.01.2018 12:00:00 2,6 0,7 2,6 0,7 1,1 5,3 15 8 31 17 ESE 1031,0 23 0 0,0
12.01.2018 11:00:00 2,7 0,7 2,5 0,3 1,0 5,3 16 8 27 14 ESE 1030,9 32 0 0,0
12.01.2018 10:00:00 2,0 -1,2 1,7 0,1 1,0 5,3 10 6 29 15 E 1030,4 31 0 0,0
12.01.2018 09:00:00 1,6 -1,6 1,3 0,1 1,0 5,3 16 9 34 18 E 1030,1 24 0 0,0
12.01.2018 08:00:00 0,9 -1,5 0,6 0,0 1,0 5,3 14 7 32 17 E 1029,3 17 0 0,0
12.01.2018 07:00:00 0,5 -1,3 0,3 0,1 1,0 5,3 15 8 27 15 E 1028,6 20 0 0,0
12.01.2018 06:00:00 0,7 -0,5 0,5 0,1 0,9 5,3 15 8 26 14 E 1028,2 10 0 0,0

tt = Température de l'air
td = dewpoint
tt 5cm = Température de l'air 5cm
tt -5cm = Température de l'air -5cm
tt -20cm = Température de l'air -20cm
tt -100cm = Température de l'air -100cm
ff = Vitesse du vent
fx = gusts
dd = Direction du vent
ppp = reduced air pressure
vv = visibility
sd = Ensoleillement
rr = Quantités de précipitations

stations d'obs. à proximité